Hourly Weather Farg`ona

Today, 10 July, Friday

Time Temperature Precipitation Wind Pressure Humidity
00:00 +29°C° 0 mm 2 mps 709 mmHg 30%
01:00 +29°C° 0 mm 1 mps 709 mmHg 30%
02:00 +28°C° 0 mm 1 mps 709 mmHg 31%
03:00 +28°C° 0.1 mm 1 mps 709 mmHg 33%
04:00 +27°C° 0.1 mm 1 mps 709 mmHg 35%
05:00 +27°C° 0.1 mm 1 mps 708 mmHg 37%
06:00 +28°C° 0 mm 1 mps 709 mmHg 34%
07:00 +30°C° 0 mm 1 mps 709 mmHg 31%
08:00 +31°C° 0 mm 1 mps 709 mmHg 28%
09:00 +33°C° 0 mm 1 mps 709 mmHg 25%
10:00 +36°C° 0 mm 2 mps 709 mmHg 21%
11:00 +38°C° 0 mm 2 mps 709 mmHg 18%
12:00 +38°C° 0 mm 4 mps 709 mmHg 18%
13:00 +38°C° 0 mm 6 mps 709 mmHg 19%
14:00 +38°C° 0 mm 8 mps 708 mmHg 19%
15:00 +39°C° 0 mm 7 mps 709 mmHg 17%
16:00 +39°C° 0 mm 7 mps 709 mmHg 16%
17:00 +40°C° 0 mm 6 mps 709 mmHg 14%
18:00 +36°C° 0 mm 6 mps 709 mmHg 19%
19:00 +34°C° 0 mm 5 mps 709 mmHg 23%
20:00 +30°C° 0 mm 5 mps 710 mmHg 28%
21:00 +29°C° 0 mm 4 mps 710 mmHg 31%
22:00 +28°C° 0 mm 4 mps 710 mmHg 34%
23:00 +27°C° 0 mm 3 mps 711 mmHg 37%

Tomorrow, 11 July, Saturday

Time Temperature Precipitation Wind Pressure Humidity
00:00 +26°C° 0.2 mm 3 mps 710 mmHg 42%
01:00 +25°C° 0.2 mm 3 mps 710 mmHg 46%
02:00 +25°C° 0.2 mm 3 mps 710 mmHg 50%
03:00 +25°C° 0.1 mm 3 mps 710 mmHg 49%
04:00 +25°C° 0.1 mm 4 mps 710 mmHg 47%
05:00 +26°C° 0.1 mm 5 mps 710 mmHg 46%
06:00 +27°C° 0 mm 5 mps 710 mmHg 41%
07:00 +28°C° 0 mm 5 mps 710 mmHg 37%
08:00 +30°C° 0 mm 4 mps 710 mmHg 33%
09:00 +32°C° 0 mm 4 mps 710 mmHg 30%
10:00 +34°C° 0 mm 3 mps 710 mmHg 26%
11:00 +35°C° 0 mm 3 mps 710 mmHg 23%
12:00 +36°C° 0 mm 2 mps 709 mmHg 20%
13:00 +38°C° 0 mm 2 mps 709 mmHg 18%
14:00 +39°C° 0 mm 2 mps 709 mmHg 16%
15:00 +39°C° 0 mm 2 mps 709 mmHg 15%
16:00 +39°C° 0 mm 2 mps 709 mmHg 15%
17:00 +39°C° 0 mm 2 mps 709 mmHg 15%
18:00 +37°C° 0 mm 3 mps 709 mmHg 19%
19:00 +34°C° 0 mm 3 mps 709 mmHg 22%
20:00 +31°C° 0 mm 3 mps 709 mmHg 26%
21:00 +30°C° 0 mm 3 mps 709 mmHg 29%
22:00 +29°C° 0 mm 2 mps 709 mmHg 33%
23:00 +28°C° 0 mm 2 mps 708 mmHg 37%

Day after tomorrow, 12 July, Sunday

Time Temperature Precipitation Wind Pressure Humidity
00:00 +28°C° 0 mm 2 mps 708 mmHg 37%
01:00 +27°C° 0 mm 1 mps 708 mmHg 37%
02:00 +27°C° 0 mm 1 mps 707 mmHg 37%
03:00 +26°C° 0 mm 1 mps 707 mmHg 39%
04:00 +25°C° 0 mm 1 mps 707 mmHg 41%
05:00 +22°C° 0 mm 0 mps 706 mmHg 43%
06:00 +26°C° 0 mm 1 mps 707 mmHg 38%
07:00 +29°C° 0 mm 1 mps 707 mmHg 33%
08:00 +31°C° 0 mm 2 mps 707 mmHg 28%
09:00 +34°C° 0 mm 2 mps 707 mmHg 26%
10:00 +36°C° 0 mm 2 mps 707 mmHg 23%
11:00 +37°C° 0 mm 2 mps 707 mmHg 20%
12:00 +38°C° 0 mm 2 mps 706 mmHg 18%
13:00 +39°C° 0 mm 2 mps 706 mmHg 17%
14:00 +40°C° 0 mm 1 mps 706 mmHg 15%
15:00 +40°C° 0 mm 2 mps 706 mmHg 14%
16:00 +40°C° 0 mm 2 mps 706 mmHg 14%
17:00 +40°C° 0 mm 3 mps 706 mmHg 14%
18:00 +38°C° 0 mm 3 mps 706 mmHg 16%
19:00 +36°C° 0 mm 3 mps 706 mmHg 18%
20:00 +34°C° 0 mm 3 mps 706 mmHg 21%
21:00 +32°C° 0 mm 2 mps 706 mmHg 23%
22:00 +31°C° 0 mm 2 mps 706 mmHg 26%
23:00 +30°C° 0 mm 1 mps 706 mmHg 28%

13 July, Monday

Time Temperature Precipitation Wind Pressure Humidity
00:00 +30°C° 0 mm 1 mps 706 mmHg 27%
01:00 +30°C° 0 mm 1 mps 706 mmHg 27%
02:00 +30°C° 0 mm 2 mps 706 mmHg 27%
03:00 +30°C° 0 mm 1 mps 706 mmHg 28%
04:00 +30°C° 0 mm 1 mps 706 mmHg 29%
05:00 +29°C° 0 mm 1 mps 706 mmHg 31%
06:00 +30°C° 0 mm 2 mps 706 mmHg 28%
07:00 +32°C° 0 mm 2 mps 706 mmHg 26%
08:00 +34°C° 0 mm 3 mps 707 mmHg 24%
09:00 +35°C° 0 mm 3 mps 707 mmHg 23%
10:00 +36°C° 0 mm 3 mps 707 mmHg 22%
11:00 +37°C° 0 mm 3 mps 707 mmHg 21%
12:00 +38°C° 0 mm 3 mps 706 mmHg 20%
13:00 +39°C° 0 mm 3 mps 706 mmHg 19%
14:00 +40°C° 0 mm 2 mps 706 mmHg 18%
15:00 +40°C° 0 mm 3 mps 706 mmHg 18%
16:00 +40°C° 0 mm 3 mps 706 mmHg 17%
17:00 +40°C° 0 mm 3 mps 706 mmHg 17%
18:00 +38°C° 0.2 mm 3 mps 706 mmHg 22%
19:00 +35°C° 0.2 mm 3 mps 706 mmHg 26%
20:00 +33°C° 0.2 mm 3 mps 707 mmHg 31%
21:00 +31°C° 0.5 mm 3 mps 707 mmHg 34%
22:00 +29°C° 0.5 mm 3 mps 707 mmHg 38%
23:00 +28°C° 0.5 mm 4 mps 707 mmHg 42%

14 July, Tuesday

Time Temperature Precipitation Wind Pressure Humidity
00:00 +28°C° 0 mm 3 mps 707 mmHg 42%
01:00 +28°C° 0 mm 3 mps 707 mmHg 42%
02:00 +27°C° 0 mm 2 mps 706 mmHg 42%
03:00 +27°C° 0.2 mm 2 mps 707 mmHg 46%
04:00 +26°C° 0.2 mm 1 mps 707 mmHg 49%
05:00 +25°C° 0.2 mm 1 mps 707 mmHg 53%
06:00 +27°C° 0.1 mm 1 mps 708 mmHg 46%
07:00 +30°C° 0.1 mm 1 mps 708 mmHg 39%
08:00 +32°C° 0.1 mm 2 mps 709 mmHg 32%
09:00 +35°C° 0 mm 2 mps 709 mmHg 29%
10:00 +37°C° 0 mm 2 mps 709 mmHg 25%
11:00 +38°C° 0 mm 2 mps 709 mmHg 22%
12:00 +39°C° 0 mm 2 mps 709 mmHg 20%
13:00 +40°C° 0 mm 1 mps 708 mmHg 18%
14:00 +41°C° 0 mm 1 mps 708 mmHg 16%
15:00 +41°C° 0 mm 2 mps 709 mmHg 16%
16:00 +42°C° 0 mm 3 mps 709 mmHg 15%
17:00 +42°C° 0 mm 4 mps 709 mmHg 14%
18:00 +38°C° 0.1 mm 4 mps 709 mmHg 21%
19:00 +35°C° 0.1 mm 4 mps 709 mmHg 27%
20:00 +32°C° 0.1 mm 5 mps 709 mmHg 34%
21:00 +31°C° 0.2 mm 3 mps 709 mmHg 34%
22:00 +31°C° 0.2 mm 2 mps 709 mmHg 34%
23:00 +31°C° 0.2 mm 1 mps 709 mmHg 35%

15 July, Wednesday

Time Temperature Precipitation Wind Pressure Humidity
00:00 +29°C° 0 mm 1 mps 709 mmHg 39%
01:00 +28°C° 0 mm 1 mps 709 mmHg 43%
02:00 +27°C° 0 mm 2 mps 708 mmHg 48%
03:00 +26°C° 0 mm 1 mps 708 mmHg 48%
04:00 +26°C° 0 mm 1 mps 708 mmHg 49%
05:00 +26°C° 0 mm 1 mps 708 mmHg 49%
06:00 +28°C° 0 mm 1 mps 708 mmHg 44%
07:00 +30°C° 0 mm 1 mps 709 mmHg 40%
08:00 +31°C° 0 mm 1 mps 709 mmHg 35%
09:00 +34°C° 0 mm 1 mps 709 mmHg 31%
10:00 +36°C° 0 mm 1 mps 709 mmHg 26%
11:00 +39°C° 0 mm 1 mps 709 mmHg 22%
12:00 +40°C° 0 mm 1 mps 709 mmHg 19%
13:00 +41°C° 0 mm 2 mps 709 mmHg 16%
14:00 +43°C° 0 mm 2 mps 709 mmHg 13%
15:00 +41°C° 0 mm 5 mps 708 mmHg 17%
16:00 +38°C° 0 mm 8 mps 708 mmHg 22%
17:00 +36°C° 0 mm 11 mps 708 mmHg 26%
18:00 +34°C° 0 mm 9 mps 708 mmHg 26%
19:00 +34°C° 0 mm 6 mps 709 mmHg 27%
20:00 +33°C° 0 mm 4 mps 709 mmHg 27%
21:00 +32°C° 0 mm 4 mps 709 mmHg 30%
22:00 +30°C° 0 mm 4 mps 709 mmHg 34%
23:00 +29°C° 0 mm 3 mps 709 mmHg 37%
Show more